This is the latest recevied weather packets stored in our database for station/object WK1F-2. If no packets are shown the sender has not sent any weather packets the latest 1 day(s).
| Time | Temp. | Humidity | Pressure | Rain* | Wind** | Luminosity | Snow |
|---|---|---|---|---|---|---|---|
| 1778043447 | 16.67° C | 83% | 1016.3 hPa | 0 mm | 1.79 m/s, 200° | - | - |
| 1778043147 | 17.22° C | 83% | 1016.3 hPa | 0 mm | 1.34 m/s, 198° | - | - |
| 1778042847 | 17.22° C | 82% | 1016.3 hPa | 0 mm | 1.34 m/s, 193° | - | - |
| 1778042547 | 17.22° C | 82% | 1016.4 hPa | 0 mm | 0.89 m/s, 178° | - | - |
| 1778042247 | 17.22° C | 82% | 1016.3 hPa | 0 mm | 0.89 m/s, 193° | - | - |
| 1778041947 | 17.22° C | 81% | 1016.4 hPa | 0 mm | 1.79 m/s, 174° | - | - |
| 1778041647 | 17.22° C | 81% | 1016.3 hPa | 0 mm | 1.34 m/s, 199° | - | - |
| 1778041353 | 17.22° C | 80% | 1016.3 hPa | 0 mm | 1.79 m/s, 202° | - | - |
| 1778041047 | 17.78° C | 79% | 1016.2 hPa | 0 mm | 1.34 m/s, 175° | - | - |
| 1778040747 | 17.78° C | 79% | 1016.4 hPa | 0 mm | 1.34 m/s, 188° | - | - |
| 1778040447 | 17.78° C | 78% | 1016.3 hPa | 0 mm | 1.34 m/s, 193° | - | - |
| 1778040147 | 18.33° C | 78% | 1016.3 hPa | 0 mm | 1.34 m/s, 184° | - | - |
| 1778039847 | 18.33° C | 77% | 1016.4 hPa | 0 mm | 0.89 m/s, 189° | - | - |
| 1778039547 | 18.33° C | 76% | 1016.4 hPa | 0 mm | 1.34 m/s, 191° | - | - |
| 1778039247 | 18.33° C | 75% | 1016.4 hPa | 0 mm | 0.89 m/s, 177° | - | - |
| 1778038947 | 18.89° C | 74% | 1016.4 hPa | 0 mm | 1.34 m/s, 156° | - | - |
| 1778038647 | 18.89° C | 74% | 1016.5 hPa | 0 mm | 0.89 m/s, 165° | - | - |
| 1778038347 | 19.44° C | 73% | 1016.5 hPa | 0 mm | 1.34 m/s, 175° | - | - |
| 1778038047 | 19.44° C | 73% | 1016.5 hPa | 0 mm | 0.89 m/s, 190° | - | - |
| 1778037747 | 19.44° C | 72% | 1016.5 hPa | 0 mm | 1.34 m/s, 181° | - | - |
| 1778037447 | 19.44° C | 71% | 1016.5 hPa | 0 mm | 0.45 m/s, 183° | - | - |
| 1778037147 | 20° C | 70% | 1016.4 hPa | 0 mm | 1.34 m/s, 194° | - | - |
| 1778036847 | 20° C | 69% | 1016.4 hPa | 0 mm | 1.79 m/s, 199° | - | - |
| 1778036547 | 20° C | 69% | 1016.3 hPa | 0 mm | 1.79 m/s, 168° | - | - |
| 1778036247 | 20° C | 68% | 1016.2 hPa | 0 mm | 2.24 m/s, 166° | - | - |
* Rain latest hour (hover to see other rain measurements)
** Current wind speed in m/s (hover to see current wind gust speed)